| time (UTC) | temp C | wind direction | speed KPH | gust KPH | rain 1hr cm | rain 24hr cm | rain mn cm | humidity % | barometer mb |
| 20260507091517 | 15 | 41 | 4.8 | 19.3 | 0.00 | 0.20 | 0.03 | 84 | 1011.5 |
| 20260507091004 | 15 | 58 | 3.2 | 16.1 | 0.00 | 0.20 | 0.03 | 84 | 1011.6 |
| 20260507090503 | 15 | 57 | 3.2 | 11.3 | 0.00 | 0.20 | 0.03 | 85 | 1011.7 |
| 20260507090005 | 15 | 328 | 1.6 | 12.9 | 0.00 | 0.20 | 0.03 | 85 | 1011.8 |
| 20260507085502 | 15 | 55 | 3.2 | 12.9 | 0.00 | 0.20 | 0.03 | 85 | 1011.5 |
| 20260507085003 | 15 | 44 | 1.6 | 12.9 | 0.00 | 0.20 | 0.03 | 85 | 1011.4 |
| 20260507084504 | 15 | 329 | 6.4 | 16.1 | 0.00 | 0.20 | 0.03 | 85 | 1011.8 |
| 20260507084004 | 15 | 326 | 3.2 | 16.1 | 0.00 | 0.20 | 0.03 | 85 | 1011.6 |
| 20260507083504 | 15 | 63 | 4.8 | 16.1 | 0.00 | 0.20 | 0.03 | 86 | 1011.7 |
| 20260507083006 | 15 | 279 | 3.2 | 11.3 | 0.00 | 0.20 | 0.03 | 87 | 1011.6 |
| 20260507082504 | 15 | 47 | 4.8 | 11.3 | 0.00 | 0.20 | 0.03 | 88 | 1011.5 |
| 20260507082004 | 15 | 29 | 1.6 | 12.9 | 0.00 | 0.20 | 0.03 | 88 | 1011.3 |
| 20260507081502 | 15 | 295 | 3.2 | 12.9 | 0.00 | 0.20 | 0.03 | 89 | 1011.3 |
| 20260507081003 | 15 | 6 | 1.6 | 9.7 | 0.00 | 0.20 | 0.03 | 89 | 1011.1 |
| 20260507080502 | 15 | 11 | 3.2 | 9.7 | 0.00 | 0.20 | 0.03 | 90 | 1011.0 |
| 20260507080004 | 15 | 57 | 3.2 | 16.1 | 0.00 | 0.20 | 0.03 | 90 | 1010.8 |
| 20260507075503 | 15 | 53 | 4.8 | 16.1 | 0.00 | 0.20 | 0.03 | 90 | 1010.9 |
| 20260507075003 | 15 | 8 | 6.4 | 17.7 | 0.00 | 0.20 | 0.03 | 91 | 1010.7 |
| 20260507074503 | 15 | 28 | 6.4 | 17.7 | 0.00 | 0.20 | 0.03 | 91 | 1010.5 |
| 20260507074005 | 15 | 34 | 6.4 | 12.9 | 0.00 | 0.20 | 0.03 | 92 | 1010.4 |
| 20260507073502 | 15 | 60 | 4.8 | 20.9 | 0.00 | 0.20 | 0.03 | 92 | 1010.8 |
| 20260507073004 | 15 | 332 | 3.2 | 20.9 | 0.00 | 0.20 | 0.03 | 92 | 1011.2 |
| 20260507072503 | 15 | 309 | 9.7 | 20.9 | 0.00 | 0.20 | 0.03 | 92 | 1011.1 |
| 20260507072003 | 15 | 308 | 3.2 | 12.9 | 0.00 | 0.20 | 0.03 | 93 | 1011.0 |
| 20260507071519 | 15 | 281 | 3.2 | 12.9 | 0.00 | 0.20 | 0.03 | 93 | 1011.0 |
| 20260507071006 | 15 | 302 | 6.4 | 14.5 | 0.00 | 0.20 | 0.03 | 93 | 1011.1 |
| 20260507070504 | 16 | 302 | 4.8 | 14.5 | 0.00 | 0.20 | 0.03 | 93 | 1011.0 |
| 20260507070009 | 16 | 289 | 3.2 | 12.9 | 0.00 | 0.20 | 0.03 | 93 | 1010.8 |
| 20260507065502 | 16 | 314 | 6.4 | 16.1 | 0.00 | 0.20 | 0.03 | 92 | 1010.7 |
| 20260507065004 | 16 | 357 | 6.4 | 16.1 | 0.00 | 0.20 | 0.03 | 92 | 1010.7 |
| 20260507064504 | 16 | 332 | 6.4 | 12.9 | 0.00 | 0.20 | 0.03 | 92 | 1010.3 |
| 20260507064005 | 16 | 341 | 1.6 | 11.3 | 0.00 | 0.20 | 0.03 | 92 | 1009.8 |
| 20260507063504 | 16 | 328 | 1.6 | 8.0 | 0.00 | 0.20 | 0.03 | 92 | 1009.6 |
| 20260507063004 | 16 | 34 | 1.6 | 11.3 | 0.00 | 0.20 | 0.03 | 92 | 1009.5 |
| 20260507062504 | 16 | 58 | 3.2 | 11.3 | 0.00 | 0.20 | 0.03 | 91 | 1009.2 |
| 20260507062002 | 16 | 52 | 3.2 | 9.7 | 0.00 | 0.20 | 0.03 | 91 | 1009.3 |
| 20260507061505 | 16 | 338 | 0.0 | 9.7 | 0.00 | 0.20 | 0.03 | 91 | 1009.4 |
| 20260507061004 | 16 | 58 | 3.2 | 12.9 | 0.03 | 0.20 | 0.03 | 91 | 1009.4 |
| 20260507060503 | 16 | 47 | 3.2 | 12.9 | 0.03 | 0.20 | 0.03 | 90 | 1009.6 |
| 20260507060008 | 17 | 32 | 3.2 | 12.9 | 0.03 | 0.20 | 0.03 | 90 | 1009.5 |
| 20260507055505 | 17 | 278 | 4.8 | 17.7 | 0.03 | 0.20 | 0.03 | 90 | 1009.9 |
| 20260507055007 | 17 | 310 | 6.4 | 17.7 | 0.03 | 0.20 | 0.03 | 90 | 1010.1 |
| 20260507054516 | 17 | 359 | 1.6 | 14.5 | 0.03 | 0.20 | 0.03 | 91 | 1009.9 |
| 20260507054005 | 17 | 56 | 6.4 | 14.5 | 0.03 | 0.20 | 0.03 | 90 | 1009.7 |
| 20260507053503 | 18 | 65 | 6.4 | 12.9 | 0.03 | 0.20 | 0.03 | 90 | 1009.7 |
| 20260507053005 | 18 | 38 | 3.2 | 9.7 | 0.03 | 0.20 | 0.03 | 91 | 1010.0 |
| 20260507052504 | 18 | 344 | 3.2 | 12.9 | 0.03 | 0.20 | 0.03 | 92 | 1010.1 |
| 20260507052004 | 18 | 331 | 6.4 | 12.9 | 0.03 | 0.20 | 0.03 | 92 | 1010.0 |
| 20260507051504 | 18 | 316 | 1.6 | 9.7 | 0.03 | 0.20 | 0.03 | 92 | 1010.0 |
| 20260507051003 | 18 | 339 | 4.8 | 9.7 | 0.00 | 0.18 | 0.00 | 92 | 1010.0 |
| 20260507050504 | 18 | 312 | 3.2 | 6.4 | 0.00 | 0.18 | 0.00 | 92 | 1010.1 |
| 20260507050011 | 18 | 285 | 0.0 | 0.0 | 0.00 | 0.18 | 0.00 | 93 | 1010.1 |
| 20260507045504 | 18 | 281 | 0.0 | 0.0 | 0.00 | 0.18 | 0.00 | 93 | 1010.1 |
| 20260507045007 | 18 | 281 | 0.0 | 0.0 | 0.00 | 0.18 | 0.00 | 93 | 1010.0 |
| 20260507044512 | 18 | 282 | 0.0 | 0.0 | 0.00 | 0.18 | 0.00 | 93 | 1010.0 |
| 20260507044004 | 18 | 282 | 0.0 | 0.0 | 0.00 | 0.18 | 0.00 | 92 | 1009.9 |
| 20260507043505 | 18 | 281 | 0.0 | 0.0 | 0.00 | 0.18 | 0.00 | 92 | 1010.0 |
| 20260507043009 | 18 | 281 | 0.0 | 0.0 | 0.00 | 0.18 | 0.00 | 92 | 1010.0 |
| 20260507042503 | 18 | 281 | 0.0 | 0.0 | 0.00 | 0.18 | 0.00 | 92 | 1010.0 |
| 20260507042003 | 18 | 281 | 0.0 | 0.0 | 0.00 | 0.18 | 0.00 | 92 | 1010.1 |
| 20260507041504 | 18 | 281 | 0.0 | 0.0 | 0.00 | 0.18 | 0.00 | 92 | 1009.9 |
| 20260507041003 | 18 | 282 | 0.0 | 0.0 | 0.00 | 0.18 | 0.00 | 92 | 1009.8 |
| 20260507040507 | 18 | 281 | 0.0 | 0.0 | 0.00 | 0.18 | 0.00 | 91 | 1009.8 |
| 20260507040007 | 18 | 279 | 0.0 | 0.0 | 0.00 | 0.18 | 0.00 | 91 | 1009.9 |
| 20260507035504 | 18 | 278 | 0.0 | 0.0 | 0.00 | 0.18 | 0.18 | 91 | 1009.9 |
| 20260507035004 | 18 | 278 | 0.0 | 0.0 | 0.00 | 0.18 | 0.18 | 91 | 1009.8 |
| 20260507034527 | 18 | 278 | 0.0 | 0.0 | 0.00 | 0.18 | 0.18 | 91 | 1009.9 |
| 20260507034004 | 18 | 278 | 0.0 | 0.0 | 0.00 | 0.18 | 0.18 | 91 | 1009.8 |
| 20260507033508 | 18 | 278 | 0.0 | 0.0 | 0.00 | 0.18 | 0.18 | 91 | 1010.0 |
| 20260507033032 | 18 | 278 | 0.0 | 0.0 | 0.00 | 0.18 | 0.18 | 91 | 1010.2 |
| 20260507032509 | 18 | 278 | 0.0 | 0.0 | 0.00 | 0.18 | 0.18 | 90 | 1010.2 |
| 20260507032010 | 18 | 278 | 0.0 | 3.2 | 0.00 | 0.18 | 0.18 | 90 | 1010.0 |
| 20260507031503 | 18 | 278 | 0.0 | 3.2 | 0.00 | 0.18 | 0.18 | 90 | 1009.8 |
| 20260507031004 | 18 | 277 | 0.0 | 0.0 | 0.00 | 0.18 | 0.18 | 90 | 1009.7 |
| 20260507030506 | 18 | 277 | 0.0 | 0.0 | 0.00 | 0.18 | 0.18 | 90 | 1009.5 |
| 20260507030006 | 18 | 278 | 0.0 | 0.0 | 0.00 | 0.18 | 0.18 | 90 | 1009.3 |
| 20260507025504 | 18 | 278 | 0.0 | 0.0 | 0.00 | 0.18 | 0.18 | 91 | 1009.2 |
| 20260507025005 | 18 | 278 | 0.0 | 0.0 | 0.00 | 0.18 | 0.18 | 91 | 1009.2 |
| 20260507024509 | 18 | 278 | 0.0 | 0.0 | 0.00 | 0.18 | 0.18 | 91 | 1009.0 |
| 20260507024006 | 18 | 278 | 0.0 | 0.0 | 0.00 | 0.18 | 0.18 | 90 | 1009.1 |
| 20260507023504 | 18 | 277 | 0.0 | 0.0 | 0.00 | 0.18 | 0.18 | 89 | 1009.2 |
| 20260507023023 | 18 | 277 | 0.0 | 0.0 | 0.00 | 0.18 | 0.18 | 89 | 1009.4 |
| 20260507022504 | 18 | 277 | 0.0 | 0.0 | 0.00 | 0.18 | 0.18 | 89 | 1009.3 |
| 20260507022009 | 18 | 277 | 0.0 | 0.0 | 0.00 | 0.18 | 0.18 | 89 | 1009.5 |
| 20260507021518 | 19 | 277 | 0.0 | 0.0 | 0.00 | 0.18 | 0.18 | 89 | 1009.7 |
| 20260507021006 | 19 | 277 | 0.0 | 0.0 | 0.00 | 0.18 | 0.18 | 89 | 1009.7 |
| 20260507020507 | 19 | 277 | 0.0 | 0.0 | 0.00 | 0.18 | 0.18 | 89 | 1010.0 |
| 20260507020006 | 19 | 277 | 0.0 | 0.0 | 0.00 | 0.18 | 0.18 | 89 | 1010.0 |
| 20260507015504 | 19 | 277 | 0.0 | 0.0 | 0.00 | 0.18 | 0.18 | 88 | 1010.1 |
| 20260507015008 | 19 | 277 | 0.0 | 0.0 | 0.00 | 0.18 | 0.18 | 88 | 1010.0 |
| 20260507014512 | 19 | 276 | 0.0 | 0.0 | 0.00 | 0.18 | 0.18 | 87 | 1009.9 |
| 20260507014006 | 19 | 276 | 0.0 | 0.0 | 0.00 | 0.18 | 0.18 | 86 | 1009.9 |
| 20260507013505 | 20 | 276 | 0.0 | 0.0 | 0.00 | 0.18 | 0.18 | 86 | 1009.9 |
| 20260507013013 | 20 | 276 | 0.0 | 0.0 | 0.00 | 0.18 | 0.18 | 86 | 1009.8 |
| 20260507012508 | 20 | 275 | 0.0 | 0.0 | 0.00 | 0.18 | 0.18 | 85 | 1009.6 |
| 20260507012006 | 20 | 275 | 0.0 | 0.0 | 0.00 | 0.18 | 0.18 | 84 | 1009.5 |
| 20260507011522 | 20 | 275 | 0.0 | 0.0 | 0.00 | 0.18 | 0.18 | 84 | 1009.5 |
| 20260507011006 | 20 | 275 | 0.0 | 4.8 | 0.00 | 0.18 | 0.18 | 84 | 1009.5 |
| 20260507010506 | 20 | 274 | 0.0 | 6.4 | 0.00 | 0.18 | 0.18 | 84 | 1009.4 |
| 20260507010024 | 20 | 275 | 3.2 | 8.0 | 0.00 | 0.18 | 0.18 | 84 | 1009.7 |
| 20260507005507 | 20 | 276 | 3.2 | 9.7 | 0.00 | 0.18 | 0.18 | 84 | 1009.6 |
| 20260507005011 | 20 | 277 | 4.8 | 9.7 | 0.00 | 0.18 | 0.18 | 84 | 1009.7 |
| 20260507004504 | 20 | 288 | 3.2 | 8.0 | 0.00 | 0.18 | 0.18 | 83 | 1009.6 |
| 20260507004005 | 20 | 242 | 3.2 | 11.3 | 0.00 | 0.18 | 0.18 | 84 | 1009.6 |
| 20260507003503 | 20 | 255 | 4.8 | 11.3 | 0.00 | 0.18 | 0.18 | 83 | 1009.5 |
| 20260507003008 | 20 | 262 | 4.8 | 11.3 | 0.00 | 0.18 | 0.18 | 83 | 1009.6 |
| 20260507002505 | 21 | 257 | 4.8 | 12.9 | 0.00 | 0.18 | 0.18 | 83 | 1009.5 |
| 20260507002005 | 21 | 249 | 3.2 | 16.1 | 0.00 | 0.18 | 0.18 | 83 | 1009.4 |
| 20260507001513 | 21 | 236 | 8.0 | 16.1 | 0.00 | 0.18 | 0.18 | 83 | 1009.5 |
| 20260507001003 | 21 | 259 | 6.4 | 14.5 | 0.00 | 0.18 | 0.18 | 83 | 1009.4 |
| 20260507000503 | 21 | 252 | 9.7 | 17.7 | 0.00 | 0.18 | 0.18 | 83 | 1009.5 |
| 20260507000007 | 21 | 255 | 8.0 | 17.7 | 0.00 | 0.18 | 0.18 | 83 | 1009.5 |
| 20260506235505 | 21 | 255 | 8.0 | 12.9 | 0.00 | 0.18 | 0.18 | 83 | 1009.4 |
| 20260506235003 | 21 | 236 | 6.4 | 16.1 | 0.00 | 0.18 | 0.18 | 82 | 1009.2 |
| 20260506234504 | 21 | 261 | 8.0 | 16.1 | 0.00 | 0.18 | 0.18 | 82 | 1009.1 |
| 20260506234003 | 21 | 208 | 6.4 | 12.9 | 0.00 | 0.18 | 0.18 | 82 | 1009.1 |
| 20260506233504 | 21 | 264 | 4.8 | 16.1 | 0.00 | 0.18 | 0.18 | 82 | 1009.2 |
| 20260506233004 | 21 | 235 | 8.0 | 17.7 | 0.00 | 0.18 | 0.18 | 83 | 1009.2 |
| 20260506232504 | 21 | 255 | 8.0 | 17.7 | 0.00 | 0.18 | 0.18 | 82 | 1009.3 |
| 20260506232006 | 21 | 240 | 8.0 | 17.7 | 0.00 | 0.18 | 0.18 | 82 | 1009.2 |
| 20260506231510 | 21 | 225 | 9.7 | 20.9 | 0.00 | 0.18 | 0.18 | 82 | 1009.0 |
| 20260506231001 | 21 | 268 | 11.3 | 20.9 | 0.00 | 0.18 | 0.18 | 82 | 1009.1 |
| 20260506230502 | 21 | 236 | 9.7 | 19.3 | 0.00 | 0.18 | 0.18 | 83 | 1009.1 |
| 20260506230003 | 21 | 248 | 8.0 | 22.5 | 0.00 | 0.18 | 0.18 | 83 | 1009.0 |
| 20260506225507 | 21 | 207 | 8.0 | 22.5 | 0.00 | 0.18 | 0.18 | 82 | 1009.1 |
| 20260506225003 | 21 | 271 | 9.7 | 20.9 | 0.00 | 0.18 | 0.18 | 83 | 1009.2 |
| 20260506224504 | 21 | 243 | 9.7 | 20.9 | 0.00 | 0.18 | 0.18 | 82 | 1009.2 |
| 20260506224007 | 21 | 240 | 12.9 | 25.7 | 0.00 | 0.18 | 0.18 | 82 | 1009.3 |
| 20260506223505 | 21 | 256 | 12.9 | 25.7 | 0.00 | 0.18 | 0.18 | 82 | 1009.2 |
| 20260506223004 | 21 | 248 | 12.9 | 27.4 | 0.00 | 0.18 | 0.18 | 82 | 1009.1 |
| 20260506222503 | 21 | 208 | 11.3 | 27.4 | 0.00 | 0.18 | 0.18 | 82 | 1009.1 |
| 20260506222003 | 21 | 229 | 12.9 | 24.1 | 0.00 | 0.18 | 0.18 | 82 | 1009.1 |
| 20260506221510 | 21 | 245 | 12.9 | 27.4 | 0.00 | 0.18 | 0.18 | 82 | 1009.1 |
| 20260506221004 | 21 | 224 | 14.5 | 27.4 | 0.00 | 0.18 | 0.18 | 82 | 1009.1 |
| 20260506220505 | 21 | 240 | 12.9 | 25.7 | 0.00 | 0.18 | 0.18 | 82 | 1009.0 |
| 20260506220028 | 21 | 236 | 14.5 | 25.7 | 0.00 | 0.18 | 0.18 | 82 | 1009.2 |
| 20260506215503 | 21 | 260 | 14.5 | 25.7 | 0.00 | 0.18 | 0.18 | 82 | 1009.2 |
| 20260506215002 | 21 | 235 | 16.1 | 30.6 | 0.00 | 0.18 | 0.18 | 82 | 1009.2 |
| 20260506214506 | 21 | 221 | 12.9 | 30.6 | 0.00 | 0.18 | 0.18 | 82 | 1009.2 |
| 20260506214004 | 21 | 255 | 14.5 | 29.0 | 0.00 | 0.18 | 0.18 | 82 | 1009.0 |
| 20260506213503 | 21 | 223 | 12.9 | 24.1 | 0.00 | 0.18 | 0.18 | 82 | 1009.0 |
| 20260506213003 | 20 | 225 | 11.3 | 29.0 | 0.00 | 0.18 | 0.18 | 83 | 1009.1 |
| 20260506212503 | 20 | 241 | 14.5 | 29.0 | 0.00 | 0.18 | 0.18 | 83 | 1009.4 |
| 20260506212003 | 20 | 240 | 14.5 | 25.7 | 0.00 | 0.18 | 0.18 | 83 | 1009.4 |
| 20260506211507 | 20 | 244 | 14.5 | 25.7 | 0.00 | 0.18 | 0.18 | 83 | 1009.5 |
| 20260506211003 | 20 | 223 | 12.9 | 22.5 | 0.00 | 0.18 | 0.18 | 83 | 1009.3 |
| 20260506210503 | 20 | 218 | 12.9 | 25.7 | 0.00 | 0.18 | 0.18 | 83 | 1009.3 |
| 20260506210012 | 20 | 235 | 12.9 | 25.7 | 0.00 | 0.18 | 0.18 | 83 | 1009.3 |
| 20260506205508 | 20 | 251 | 16.1 | 25.7 | 0.00 | 0.18 | 0.18 | 83 | 1009.3 |
| 20260506205007 | 20 | 221 | 11.3 | 20.9 | 0.00 | 0.18 | 0.18 | 83 | 1009.3 |
| 20260506204503 | 20 | 246 | 11.3 | 19.3 | 0.00 | 0.18 | 0.18 | 83 | 1009.3 |
| 20260506204003 | 20 | 242 | 9.7 | 24.1 | 0.00 | 0.18 | 0.18 | 83 | 1009.2 |
| 20260506203503 | 20 | 233 | 14.5 | 24.1 | 0.00 | 0.18 | 0.18 | 83 | 1009.3 |
| 20260506203004 | 20 | 224 | 11.3 | 24.1 | 0.00 | 0.18 | 0.18 | 83 | 1009.3 |
| 20260506202503 | 20 | 233 | 12.9 | 24.1 | 0.00 | 0.18 | 0.18 | 83 | 1009.2 |
| 20260506202005 | 20 | 236 | 9.7 | 19.3 | 0.00 | 0.18 | 0.18 | 84 | 1009.1 |
| 20260506201505 | 20 | 245 | 11.3 | 19.3 | 0.00 | 0.18 | 0.18 | 84 | 1009.1 |
| 20260506201004 | 20 | 200 | 11.3 | 24.1 | 0.00 | 0.18 | 0.18 | 84 | 1009.1 |
| 20260506200503 | 20 | 221 | 14.5 | 24.1 | 0.00 | 0.18 | 0.18 | 84 | 1009.2 |
| 20260506200004 | 20 | 244 | 9.7 | 24.1 | 0.00 | 0.18 | 0.18 | 85 | 1009.4 |
| 20260506195506 | 20 | 233 | 9.7 | 24.1 | 0.00 | 0.18 | 0.18 | 85 | 1009.4 |
| 20260506195004 | 20 | 261 | 9.7 | 20.9 | 0.00 | 0.18 | 0.18 | 85 | 1009.6 |
| 20260506194510 | 20 | 249 | 11.3 | 19.3 | 0.00 | 0.18 | 0.18 | 85 | 1009.5 |
| 20260506194006 | 20 | 250 | 11.3 | 20.9 | 0.00 | 0.18 | 0.18 | 85 | 1010.0 |
| 20260506193512 | 20 | 257 | 11.3 | 20.9 | 0.00 | 0.18 | 0.18 | 85 | 1010.1 |
| 20260506193004 | 20 | 286 | 9.7 | 19.3 | 0.00 | 0.18 | 0.18 | 85 | 1010.2 |
| 20260506192502 | 20 | 255 | 14.5 | 22.5 | 0.00 | 0.18 | 0.18 | 85 | 1009.9 |
| 20260506192004 | 20 | 261 | 12.9 | 22.5 | 0.00 | 0.18 | 0.18 | 85 | 1010.2 |
| 20260506191504 | 20 | 283 | 14.5 | 22.5 | 0.00 | 0.18 | 0.18 | 85 | 1010.2 |
| 20260506191004 | 20 | 218 | 11.3 | 24.1 | 0.00 | 0.18 | 0.18 | 85 | 1010.2 |
| 20260506190504 | 19 | 262 | 12.9 | 24.1 | 0.00 | 0.18 | 0.18 | 85 | 1010.3 |
| 20260506190006 | 20 | 233 | 11.3 | 29.0 | 0.00 | 0.18 | 0.18 | 85 | 1010.2 |
| 20260506185503 | 20 | 248 | 12.9 | 29.0 | 0.00 | 0.18 | 0.18 | 85 | 1010.4 |
| 20260506185003 | 19 | 249 | 14.5 | 22.5 | 0.00 | 0.18 | 0.18 | 85 | 1010.6 |
| 20260506184508 | 19 | 251 | 12.9 | 27.4 | 0.00 | 0.18 | 0.18 | 85 | 1010.5 |
| 20260506184008 | 19 | 261 | 11.3 | 27.4 | 0.00 | 0.18 | 0.18 | 85 | 1010.6 |
| 20260506183508 | 19 | 240 | 12.9 | 24.1 | 0.00 | 0.18 | 0.18 | 85 | 1010.6 |
| 20260506183018 | 19 | 231 | 12.9 | 24.1 | 0.00 | 0.18 | 0.18 | 85 | 1010.6 |
| 20260506182506 | 19 | 228 | 12.9 | 24.1 | 0.00 | 0.18 | 0.18 | 85 | 1010.7 |
| 20260506182008 | 19 | 249 | 12.9 | 24.1 | 0.00 | 0.18 | 0.18 | 85 | 1010.8 |
| 20260506181503 | 19 | 257 | 14.5 | 30.6 | 0.00 | 0.18 | 0.18 | 85 | 1010.8 |
| 20260506181006 | 19 | 224 | 12.9 | 30.6 | 0.00 | 0.18 | 0.18 | 84 | 1010.7 |
| 20260506180506 | 19 | 226 | 12.9 | 22.5 | 0.00 | 0.18 | 0.18 | 84 | 1010.7 |
| 20260506180008 | 19 | 252 | 11.3 | 24.1 | 0.00 | 0.18 | 0.18 | 85 | 1010.7 |
| 20260506175506 | 19 | 200 | 11.3 | 25.7 | 0.00 | 0.18 | 0.18 | 85 | 1010.7 |
| 20260506175010 | 19 | 226 | 12.9 | 25.7 | 0.00 | 0.18 | 0.18 | 85 | 1010.8 |
| 20260506174508 | 18 | 251 | 11.3 | 20.9 | 0.00 | 0.18 | 0.18 | 85 | 1010.9 |
| 20260506174008 | 18 | 250 | 11.3 | 22.5 | 0.00 | 0.18 | 0.18 | 86 | 1010.9 |
| 20260506173505 | 18 | 229 | 8.0 | 22.5 | 0.00 | 0.18 | 0.18 | 86 | 1011.0 |
| 20260506173018 | 18 | 235 | 12.9 | 20.9 | 0.00 | 0.18 | 0.18 | 86 | 1011.0 |
| 20260506172506 | 18 | 209 | 9.7 | 20.9 | 0.00 | 0.18 | 0.18 | 87 | 1011.1 |
| 20260506172008 | 18 | 219 | 9.7 | 20.9 | 0.00 | 0.18 | 0.18 | 87 | 1011.1 |
| 20260506171521 | 18 | 204 | 8.0 | 20.9 | 0.00 | 0.18 | 0.18 | 87 | 1011.0 |
| 20260506171007 | 18 | 236 | 8.0 | 22.5 | 0.00 | 0.18 | 0.18 | 87 | 1011.1 |
| 20260506170507 | 18 | 282 | 9.7 | 22.5 | 0.00 | 0.18 | 0.18 | 87 | 1011.2 |
| 20260506170006 | 18 | 252 | 9.7 | 22.5 | 0.00 | 0.18 | 0.18 | 87 | 1011.3 |
| 20260506165506 | 18 | 227 | 9.7 | 22.5 | 0.00 | 0.18 | 0.18 | 87 | 1011.3 |
| 20260506165004 | 18 | 235 | 9.7 | 22.5 | 0.00 | 0.18 | 0.18 | 88 | 1011.4 |
| 20260506164504 | 18 | 235 | 9.7 | 22.5 | 0.03 | 0.18 | 0.18 | 88 | 1011.4 |
| 20260506164003 | 18 | 255 | 12.9 | 24.1 | 0.03 | 0.18 | 0.18 | 88 | 1011.6 |
| 20260506163504 | 17 | 238 | 11.3 | 24.1 | 0.03 | 0.18 | 0.18 | 88 | 1011.8 |
| 20260506163010 | 17 | 229 | 11.3 | 24.1 | 0.03 | 0.18 | 0.18 | 89 | 1011.6 |
| 20260506162504 | 17 | 185 | 8.0 | 20.9 | 0.05 | 0.18 | 0.18 | 89 | 1011.5 |
| 20260506162011 | 17 | 184 | 9.7 | 20.9 | 0.08 | 0.18 | 0.18 | 90 | 1011.2 |
| 20260506161512 | 17 | 235 | 11.3 | 22.5 | 0.10 | 0.18 | 0.18 | 90 | 1011.2 |
| 20260506161008 | 17 | 207 | 9.7 | 22.5 | 0.10 | 0.18 | 0.18 | 90 | 1011.2 |
| 20260506160510 | 17 | 208 | 11.3 | 20.9 | 0.13 | 0.18 | 0.18 | 90 | 1011.3 |
| 20260506160021 | 17 | 223 | 11.3 | 20.9 | 0.13 | 0.18 | 0.18 | 90 | 1011.5 |
| 20260506155509 | 17 | 192 | 8.0 | 20.9 | 0.13 | 0.18 | 0.18 | 90 | 1011.5 |
| 20260506155010 | 17 | 227 | 8.0 | 32.2 | 0.13 | 0.18 | 0.18 | 90 | 1011.6 |
| 20260506154508 | 17 | 184 | 12.9 | 32.2 | 0.13 | 0.15 | 0.15 | 89 | 1011.6 |
| 20260506154004 | 17 | 233 | 11.3 | 29.0 | 0.13 | 0.15 | 0.15 | 89 | 1011.6 |
| 20260506153503 | 17 | 226 | 11.3 | 24.1 | 0.13 | 0.15 | 0.15 | 89 | 1011.7 |
| 20260506153014 | 17 | 197 | 11.3 | 25.7 | 0.13 | 0.15 | 0.15 | 89 | 1011.7 |
| 20260506152504 | 17 | 265 | 11.3 | 33.8 | 0.10 | 0.13 | 0.13 | 88 | 1011.7 |
| 20260506152004 | 17 | 229 | 12.9 | 33.8 | 0.08 | 0.10 | 0.10 | 87 | 1011.9 |
| 20260506151512 | 17 | 261 | 12.9 | 24.1 | 0.05 | 0.08 | 0.08 | 86 | 1012.1 |
| 20260506151002 | 18 | 222 | 12.9 | 24.1 | 0.05 | 0.08 | 0.08 | 85 | 1012.2 |
| 20260506150502 | 18 | 231 | 9.7 | 24.1 | 0.03 | 0.05 | 0.05 | 85 | 1012.2 |
| 20260506150005 | 18 | 215 | 12.9 | 24.1 | 0.03 | 0.05 | 0.05 | 84 | 1012.2 |
| 20260506145502 | 18 | 214 | 12.9 | 30.6 | 0.03 | 0.05 | 0.05 | 83 | 1012.2 |
| 20260506145002 | 18 | 217 | 12.9 | 30.6 | 0.03 | 0.05 | 0.05 | 83 | 1012.2 |
| 20260506144507 | 18 | 240 | 11.3 | 27.4 | 0.00 | 0.03 | 0.03 | 83 | 1012.2 |
| 20260506144002 | 18 | 248 | 12.9 | 27.4 | 0.00 | 0.03 | 0.03 | 83 | 1012.1 |
| 20260506143503 | 18 | 156 | 8.0 | 20.9 | 0.03 | 0.03 | 0.03 | 84 | 1012.1 |
| 20260506143004 | 18 | 230 | 8.0 | 20.9 | 0.03 | 0.03 | 0.03 | 83 | 1012.0 |
| 20260506142503 | 18 | 230 | 6.4 | 19.3 | 0.03 | 0.03 | 0.03 | 83 | 1011.9 |
| 20260506142003 | 18 | 242 | 8.0 | 20.9 | 0.03 | 0.03 | 0.03 | 83 | 1012.0 |
| 20260506141502 | 18 | 238 | 11.3 | 20.9 | 0.03 | 0.03 | 0.03 | 82 | 1012.0 |
| 20260506141004 | 18 | 231 | 4.8 | 12.9 | 0.03 | 0.03 | 0.03 | 84 | 1011.9 |
| 20260506140505 | 18 | 224 | 4.8 | 17.7 | 0.03 | 0.03 | 0.03 | 83 | 1012.0 |
| 20260506140003 | 18 | 228 | 8.0 | 17.7 | 0.03 | 0.03 | 0.03 | 82 | 1012.0 |
| 20260506135503 | 18 | 203 | 6.4 | 16.1 | 0.03 | 0.03 | 0.03 | 81 | 1012.1 |
| 20260506135005 | 18 | 221 | 9.7 | 19.3 | 0.03 | 0.03 | 0.03 | 81 | 1012.2 |
| 20260506134504 | 18 | 255 | 9.7 | 19.3 | 0.03 | 0.03 | 0.03 | 80 | 1012.1 |
| 20260506134002 | 18 | 236 | 9.7 | 19.3 | 0.03 | 0.03 | 0.03 | 80 | 1012.0 |
| 20260506133504 | 18 | 195 | 12.9 | 24.1 | 0.00 | 0.00 | 0.00 | 79 | 1012.0 |
| 20260506133004 | 18 | 217 | 9.7 | 24.1 | 0.00 | 0.00 | 0.00 | 79 | 1012.2 |
| 20260506132503 | 18 | 242 | 14.5 | 24.1 | 0.00 | 0.00 | 0.00 | 79 | 1012.2 |
| 20260506132003 | 19 | 206 | 12.9 | 27.4 | 0.00 | 0.00 | 0.00 | 77 | 1012.1 |
| 20260506131506 | 19 | 223 | 11.3 | 27.4 | 0.00 | 0.00 | 0.00 | 77 | 1012.0 |
| 20260506131003 | 19 | 224 | 11.3 | 24.1 | 0.00 | 0.00 | 0.00 | 77 | 1012.0 |
| 20260506130503 | 19 | 235 | 11.3 | 24.1 | 0.00 | 0.00 | 0.00 | 76 | 1011.9 |
| 20260506130003 | 19 | 231 | 12.9 | 24.1 | 0.00 | 0.00 | 0.00 | 76 | 1011.8 |
| 20260506125501 | 19 | 219 | 9.7 | 19.3 | 0.00 | 0.00 | 0.00 | 76 | 1011.7 |
| 20260506125003 | 19 | 204 | 11.3 | 19.3 | 0.00 | 0.00 | 0.00 | 76 | 1011.8 |
| 20260506124503 | 19 | 212 | 8.0 | 19.3 | 0.00 | 0.00 | 0.00 | 77 | 1011.9 |
| 20260506124003 | 19 | 240 | 9.7 | 19.3 | 0.00 | 0.00 | 0.00 | 76 | 1011.8 |
| 20260506123507 | 19 | 238 | 9.7 | 22.5 | 0.00 | 0.00 | 0.00 | 76 | 1011.9 |
| 20260506123004 | 19 | 224 | 8.0 | 22.5 | 0.00 | 0.00 | 0.00 | 76 | 1011.9 |
| 20260506122504 | 18 | 232 | 11.3 | 20.9 | 0.00 | 0.00 | 0.00 | 76 | 1011.7 |
| 20260506122003 | 18 | 231 | 8.0 | 19.3 | 0.00 | 0.00 | 0.00 | 77 | 1011.8 |
| 20260506121503 | 18 | 233 | 11.3 | 19.3 | 0.00 | 0.00 | 0.00 | 76 | 1011.8 |
| 20260506121004 | 18 | 246 | 9.7 | 19.3 | 0.00 | 0.00 | 0.00 | 77 | 1012.0 |
| 20260506120503 | 18 | 243 | 8.0 | 19.3 | 0.00 | 0.00 | 0.00 | 77 | 1011.9 |
| 20260506120006 | 18 | 207 | 6.4 | 19.3 | 0.00 | 0.00 | 0.00 | 76 | 1011.9 |
| 20260506115507 | 18 | 183 | 6.4 | 17.7 | 0.00 | 0.00 | 0.00 | 76 | 1012.1 |
| 20260506115003 | 18 | 212 | 8.0 | 16.1 | 0.00 | 0.00 | 0.00 | 77 | 1012.1 |
| 20260506114505 | 18 | 232 | 8.0 | 19.3 | 0.00 | 0.00 | 0.00 | 76 | 1012.0 |
| 20260506114003 | 18 | 212 | 11.3 | 19.3 | 0.00 | 0.00 | 0.00 | 76 | 1012.0 |
| 20260506113503 | 18 | 200 | 9.7 | 17.7 | 0.00 | 0.00 | 0.00 | 76 | 1012.0 |
| 20260506113005 | 18 | 238 | 8.0 | 20.9 | 0.00 | 0.00 | 0.00 | 76 | 1012.0 |
| 20260506112502 | 18 | 172 | 9.7 | 22.5 | 0.00 | 0.00 | 0.00 | 76 | 1012.0 |
| 20260506112003 | 18 | 218 | 11.3 | 22.5 | 0.00 | 0.00 | 0.00 | 76 | 1012.0 |
| 20260506111504 | 18 | 226 | 12.9 | 22.5 | 0.00 | 0.00 | 0.00 | 76 | 1012.0 |
| 20260506111004 | 18 | 227 | 11.3 | 22.5 | 0.00 | 0.00 | 0.00 | 76 | 1012.0 |
| 20260506110504 | 18 | 246 | 11.3 | 22.5 | 0.00 | 0.00 | 0.00 | 76 | 1011.9 |
| 20260506110006 | 18 | 217 | 9.7 | 19.3 | 0.00 | 0.00 | 0.00 | 76 | 1012.0 |
| 20260506105504 | 18 | 214 | 8.0 | 16.1 | 0.00 | 0.00 | 0.00 | 77 | 1011.8 |
| 20260506105003 | 18 | 205 | 6.4 | 17.7 | 0.00 | 0.00 | 0.00 | 77 | 1012.0 |
| 20260506104504 | 18 | 224 | 8.0 | 17.7 | 0.00 | 0.00 | 0.00 | 76 | 1011.9 |
| 20260506104003 | 18 | 221 | 6.4 | 24.1 | 0.00 | 0.00 | 0.00 | 77 | 1011.8 |
| 20260506103505 | 18 | 211 | 8.0 | 24.1 | 0.00 | 0.00 | 0.00 | 77 | 1011.9 |
| 20260506103003 | 18 | 213 | 8.0 | 16.1 | 0.00 | 0.00 | 0.00 | 77 | 1011.8 |
| 20260506102503 | 18 | 231 | 8.0 | 16.1 | 0.00 | 0.00 | 0.00 | 78 | 1011.8 |
| 20260506102003 | 18 | 214 | 9.7 | 14.5 | 0.00 | 0.00 | 0.00 | 77 | 1011.8 |
| 20260506101504 | 18 | 197 | 9.7 | 14.5 | 0.00 | 0.00 | 0.00 | 79 | 1011.7 |
| 20260506101002 | 18 | 189 | 6.4 | 19.3 | 0.00 | 0.00 | 0.00 | 79 | 1011.6 |
| 20260506100504 | 18 | 193 | 8.0 | 22.5 | 0.00 | 0.00 | 0.00 | 79 | 1011.6 |
| 20260506100005 | 18 | 257 | 9.7 | 22.5 | 0.00 | 0.00 | 0.00 | 79 | 1011.6 |
| 20260506095504 | 18 | 203 | 8.0 | 20.9 | 0.00 | 0.00 | 0.00 | 79 | 1011.6 |
| 20260506095004 | 18 | 225 | 6.4 | 20.9 | 0.00 | 0.00 | 0.00 | 80 | 1011.6 |
| 20260506094506 | 18 | 247 | 11.3 | 20.9 | 0.00 | 0.00 | 0.00 | 80 | 1011.7 |
| 20260506094005 | 18 | 221 | 9.7 | 20.9 | 0.00 | 0.00 | 0.00 | 80 | 1011.6 |
| 20260506093504 | 18 | 146 | 9.7 | 17.7 | 0.00 | 0.00 | 0.00 | 80 | 1011.6 |
| 20260506093004 | 18 | 212 | 9.7 | 17.7 | 0.00 | 0.00 | 0.00 | 80 | 1011.6 |
| 20260506092505 | 18 | 216 | 8.0 | 17.7 | 0.00 | 0.00 | 0.00 | 80 | 1011.6 |
| 20260506092002 | 18 | 220 | 8.0 | 19.3 | 0.00 | 0.00 | 0.00 | 80 | 1011.7 |